Flag for Portugal Weather past 2 weeks in Setúbal, Portugal

Now
66 °F

Sunny.


Feels Like: 66 °F
Forecast: 57 / 75 °F
Wind: 7 mph from East

Location: Lisbon Portela Airport

Current Time: Oct 25, 2014 at 10:07:42 AM

Latest Report: Oct 25, 2014 at 9:30 AM


Visibility: 10 mi

Pressure: 30.04 "Hg

Humidity: 73%

Dew point: 57 °F

Location of SetúbalLocation

Historic Weather in Setúbal — Graph

°F

Setúbal temperature yesterday

Maximum temperature yesterday: 79 °F (at 2:00 PM)
Minimum temperature yesterday: 61 °F (at 7:00 AM)
Average temperature yesterday: 72 °F

Past Weeks' High & Low Weather Summary

 TemperatureHumidityPressure
High86 °F (Oct 22, 3:30 PM)100% (Oct 11, 5:00 AM)30.33 "Hg (Oct 11, 5:00 AM)
Low55 °F (Oct 11, 5:00 AM)32% (Oct 23, 3:30 PM)29.62 "Hg (Oct 12, 7:00 AM)
Average68 °F76%29.98 "Hg
* Reported Oct 10 8:00 AM — Oct 25 8:30 AM, Setúbal, Weather by CustomWeather, © 2014

Note: Actual official high and low records may vary slightly from our data, if they occured in-between our weather recording intervals... More about our weather records

Advertising

Setúbal weather history for previous 24 hours

 ConditionsComfort  
Time TempWeatherWind HumidityBarometerVisibility
8:30 AM
Oct 25
64 °FClear.6 mph78%30.01 "Hg10 mi
8:00 AM63 °FPassing clouds.5 mph77%30.01 "HgN/A
7:30 AM64 °FPassing clouds.7 mph73%29.98 "HgN/A
7:00 AM64 °FClear.6 mph73%29.98 "Hg10 mi
6:30 AM64 °FClear.7 mph78%29.98 "Hg10 mi
6:00 AM64 °FClear.6 mph78%29.98 "Hg10 mi
5:30 AM64 °FClear.6 mph78%29.98 "Hg10 mi
5:00 AM64 °FClear.3 mph83%29.98 "Hg10 mi
4:30 AM66 °FClear.5 mph78%29.98 "Hg10 mi
4:00 AM68 °FClear.6 mph73%29.98 "Hg10 mi
3:30 AM66 °FClear.6 mph73%29.98 "Hg10 mi
3:00 AM68 °FClear.6 mph69%29.98 "Hg10 mi
2:30 AM66 °FClear.6 mph78%29.98 "Hg10 mi
2:00 AM66 °FClear.2 mph83%29.98 "Hg10 mi
1:30 AM68 °FClear.6 mph73%30.01 "Hg10 mi
1:00 AM70 °FClear.5 mph69%30.01 "Hg10 mi
12:30 AM72 °FClear.6 mph65%30.01 "Hg10 mi
12:00 AM72 °FPassing clouds.8 mph65%30.01 "HgN/A
11:30 PM
Oct 24
70 °FClear.5 mph64%30.01 "Hg10 mi
11:00 PM68 °FClear.3 mph69%30.01 "Hg10 mi
10:30 PM72 °FClear.2 mph57%30.01 "Hg10 mi
10:00 PM72 °FClear.5 mph57%30.01 "Hg10 mi
9:30 PM73 °FClear.6 mph53%30.01 "Hg10 mi
9:00 PM73 °FClear.8 mph53%30.01 "Hg10 mi
8:30 PM73 °FClear.6 mph57%29.98 "Hg10 mi
8:00 PM75 °FClear.9 mph54%29.98 "Hg10 mi
7:30 PM73 °FSunny.9 mph57%29.98 "Hg10 mi
7:00 PM75 °FSunny.8 mph54%29.98 "Hg10 mi
6:30 PM77 °FSunny.8 mph54%29.98 "Hg10 mi
6:00 PM77 °FSunny.8 mph54%29.98 "Hg10 mi
5:30 PM79 °FPassing clouds.10 mph45%29.98 "HgN/A
5:00 PM79 °FSunny.8 mph51%29.98 "Hg10 mi
4:30 PM79 °FSunny.8 mph51%30.01 "Hg10 mi
4:00 PM79 °FPassing clouds.7 mph48%30.01 "HgN/A
3:30 PM79 °FSunny.9 mph45%30.01 "Hg10 mi
3:00 PM79 °FPassing clouds.10 mph42%30.01 "HgN/A
2:30 PM79 °FPassing clouds.8 mph45%30.01 "HgN/A
2:00 PM79 °FPassing clouds.8 mph42%30.04 "HgN/A
1:30 PM77 °FPassing clouds.9 mph44%30.04 "HgN/A
1:00 PM77 °FPassing clouds.10 mph42%30.04 "HgN/A
12:30 PM77 °FPassing clouds.8 mph42%30.07 "HgN/A
12:00 PM75 °FPassing clouds.7 mph54%30.07 "HgN/A
11:30 AM73 °FSunny.6 mph53%30.07 "Hg10 mi
11:00 AM72 °FPassing clouds.7 mph53%30.07 "HgN/A
10:30 AM72 °FPassing clouds.8 mph53%30.07 "HgN/A
10:00 AM70 °FPassing clouds.7 mph50%30.07 "HgN/A
Weather by CustomWeather, © 2014

See weather overviewHow to use our weather pages